This demonstration page uses our WeatherBlox Daily Observations layout. Learn more.

Left ArrowRight Arrow

39.51506, -84.39828

Hourly Observations for February 10, 2020

Temp ( °F °C ) Dew Point ( °F °C ) Humidity (%) Winds ( mph kmh ) Pressure ( in mb ) Visibility ( mi km ) Precip ( " mm )
12:15 am 00:15 Cloudy with Light Rain 43 6.2 40 4.2 87 87 SSW 10 17 30.03 1017 10 16.0934 0 0
12:35 am 00:35 Cloudy with Light Rain 44 6.4 40 4.4 87 87 S 14 22 30.02 1017 10 16.0934 0 0
12:55 am 00:55 Cloudy with Light Rain 44 6.5 40 4.7 88 88 S 10 17 30.01 1016 10 16.0934 0 0
1:15 am 01:15 Cloudy with Light Rain 44 6.7 41 4.9 88 88 S 13 20 30.01 1016 10 16.0934 0 0
1:35 am 01:35 Cloudy with Light Rain 45 7.1 41 5.2 88 88 S 15 24 30.01 1016 7 11.26538 0 0
1:55 am 01:55 Cloudy with Light Rain 45 7.2 42 5.5 89 89 SSW 13 20 30 1016 10 16.0934 0 0
2:15 am 02:15 Cloudy with Light Rain 46 7.5 43 6 90 90 SSW 14 22 30 1016 10 16.0934 0 0
2:35 am 02:35 Cloudy with Light Rain 47 8.1 44 6.4 89 89 SSW 14 22 29.99 1016 10 16.0934 0 0
2:55 am 02:55 Cloudy 48 8.7 44 6.7 87 87 SSW 16 26 29.99 1016 10 16.0934 0.01 0.254
3:15 am 03:15 Cloudy 48 8.9 44 6.9 87 87 SSW 14 22 29.99 1016 10 16.0934 0 0
3:35 am 03:35 Cloudy 48 9.1 45 7.1 87 87 SSW 15 24 30 1016 10 16.0934 0 0
3:55 am 03:55 Cloudy 48 9.1 45 7.2 88 88 SSW 17 28 30 1016 10 16.0934 0 0
4:15 am 04:15 Cloudy with Light Rain 48 9.1 45 7.3 89 89 SSW 17 28 30 1016 10 16.0934 0 0
4:35 am 04:35 Cloudy with Light Rain 48 9.1 46 7.6 90 90 SSW 17 28 29.99 1016 10 16.0934 0 0
4:55 am 04:55 Cloudy with Light Rain 48 8.9 46 7.6 92 92 SSW 14 22 29.99 1016 7 11.26538 0 0
5:15 am 05:15 Cloudy 48 9.1 46 7.5 90 90 SSW 14 22 29.99 1016 10 16.0934 0 0
5:35 am 05:35 Cloudy 48 9.1 46 7.6 90 90 SSW 14 22 29.99 1016 10 16.0934 0 0
5:55 am 05:55 Cloudy 49 9.2 46 7.7 90 90 SSW 15 24 30 1016 10 16.0934 0 0
6:15 am 06:15 Cloudy 48 9.1 46 7.7 91 91 SW 12 19 30 1016 10 16.0934 0 0
6:35 am 06:35 Cloudy with Light Rain 48 9.1 46 7.8 92 92 SW 9 15 30.01 1016 10 16.0934 0 0
6:55 am 06:55 Cloudy 48 9.1 46 7.9 92 92 SW 10 17 30.02 1017 10 16.0934 0 0
7:15 am 07:15 Cloudy with Drizzle 48 8.8 47 8.1 95 95 SW 10 17 30.03 1017 2.5 4.02335 0 0
7:35 am 07:35 Cloudy with Drizzle 47 8.5 47 8.2 98 98 SW 6 9 30.04 1017 3 4.82802 0 0
7:55 am 07:55 Cloudy with Light Rain 44 6.9 43 6.2 95 95 NNW 9 15 30.06 1018 5 8.0467 0 0
8:15 am 08:15 Cloudy with Drizzle 43 6 42 5.3 95 95 N 7 11 30.07 1018 3.5 5.63269 0 0
8:35 am 08:35 Cloudy with Drizzle 41 5.1 40 4.5 96 96 N 5 7 30.08 1019 3.5 5.63269 0 0
8:55 am 08:55 Cloudy with Drizzle 40 4.6 39 4.1 97 97 NNW 6 9 30.09 1019 2.5 4.02335 0 0
9:15 am 09:15 Cloudy with Drizzle 40 4.3 39 3.9 97 97 N 7 11 30.1 1019 2 3.21868 0 0
9:35 am 09:35 Cloudy with Drizzle 40 4.2 39 3.8 97 97 N 5 7 30.11 1020 2.5 4.02335 0 0
9:55 am 09:55 Cloudy with Mist and Fog 39 4.1 39 3.7 97 97 N 5 7 30.11 1020 2 3.21868 0 0
10:15 am 10:15 Cloudy with Mist and Fog 39 4.1 38 3.6 97 97 N 7 11 30.12 1020 2.5 4.02335 0 0
10:30 am 10:30 Cloudy with Mist and Fog 39 4 38 3.6 97 97 N 7 11 30.13 1020 2.5 4.02335 0 0
10:55 am 10:55 Cloudy with Drizzle 39 4 38 3.4 96 96 N 7 11 30.13 1020 2.5 4.02335 0 0
11:15 am 11:15 Cloudy with Mist and Fog 39 4.1 39 3.7 97 97 N 7 11 30.14 1021 2.5 4.02335 0 0
11:35 am 11:35 Cloudy with Mist and Fog 39 4.1 38 3.5 96 96 NNE 6 9 30.12 1020 3 4.82802 0 0
11:55 am 11:55 Cloudy with Mist and Fog 40 4.4 39 3.7 95 95 NNE 8 13 30.11 1020 4 6.43736 0 0
12:15 pm 12:15 Cloudy with Mist and Fog 40 4.4 38 3.6 95 95 N 7 11 30.11 1020 5 8.0467 0 0
12:35 pm 12:35 Cloudy 40 4.5 39 3.7 95 95 N 5 7 30.11 1020 10 16.0934 0 0
12:55 pm 12:55 Cloudy 40 4.3 38 3.5 95 95 N 7 11 30.11 1020 10 16.0934 0 0
1:15 pm 13:15 Cloudy 40 4.4 38 3.6 95 95 N 6 9 30.09 1019 10 16.0934 0 0
1:35 pm 13:35 Cloudy 40 4.4 38 3.5 94 94 N 7 11 30.09 1019 10 16.0934 0 0
1:55 pm 13:55 Cloudy 40 4.4 38 3.3 93 93 NNE 8 13 30.09 1019 10 16.0934 0 0
2:15 pm 14:15 Cloudy 40 4.2 38 3.1 93 93 N 8 13 30.08 1019 10 16.0934 0 0
2:35 pm 14:35 Cloudy 40 4.2 38 3.1 93 93 N 7 11 30.08 1019 7 11.26538 0 0
2:55 pm 14:55 Cloudy 40 4.2 38 3.1 93 93 N 6 9 30.08 1019 7 11.26538 0 0
3:15 pm 15:15 Cloudy 39 4 38 3.1 94 94 N 6 9 30.08 1019 10 16.0934 0 0
3:35 pm 15:35 Cloudy 39 4 38 3.1 94 94 N 7 11 30.08 1019 10 16.0934 0 0
3:55 pm 15:55 Cloudy 39 3.9 37 2.9 93 93 N 7 11 30.08 1019 10 16.0934 0 0
4:15 pm 16:15 Cloudy 39 3.9 37 2.9 93 93 NNE 8 13 30.08 1019 7 11.26538 0 0
4:35 pm 16:35 Cloudy with Mist and Fog 38 3.5 37 2.9 96 96 N 7 11 30.1 1019 3 4.82802 0 0
4:55 pm 16:55 Cloudy with Mist and Fog 38 3.4 37 2.8 96 96 N 8 13 30.1 1019 3 4.82802 0 0
5:15 pm 17:15 Cloudy with Mist and Fog 38 3.3 37 2.7 96 96 N 7 11 30.1 1019 4 6.43736 0 0
5:35 pm 17:35 Cloudy with Mist and Fog 38 3.3 37 2.7 96 96 NNE 5 7 30.11 1020 4 6.43736 0 0
5:55 pm 17:55 Cloudy with Mist and Fog 38 3.2 37 2.7 97 97 NNE 5 7 30.11 1020 3 4.82802 0 0
6:15 pm 18:15 Cloudy with Mist and Fog 38 3.1 37 2.6 97 97 N 8 13 30.11 1020 2.5 4.02335 0 0
6:35 pm 18:35 Cloudy with Mist and Fog 37 2.9 37 2.5 97 97 N 7 11 30.11 1020 3 4.82802 0 0
6:55 pm 18:55 Cloudy with Mist and Fog 37 2.8 36 2.4 97 97 N 6 9 30.12 1020 3.5 5.63269 0 0
7:15 pm 19:15 Cloudy with Mist and Fog 37 2.8 36 2.4 97 97 N 6 9 30.14 1021 3 4.82802 0 0
7:35 pm 19:35 Cloudy with Mist and Fog 37 2.8 37 2.5 98 98 N 3 6 30.14 1021 2 3.21868 0 0
7:55 pm 19:55 Cloudy with Mist and Fog 37 2.7 36 2.4 98 98 N 6 9 30.14 1021 2 3.21868 0 0
8:15 pm 20:15 Cloudy with Mist and Fog 37 2.7 36 2.4 98 98 N 5 7 30.14 1021 2 3.21868 0 0
8:35 pm 20:35 Cloudy with Mist and Fog 37 2.6 36 2.3 98 98 N 5 7 30.12 1020 2 3.21868 0 0
8:55 pm 20:55 Cloudy with Mist and Fog 37 2.6 36 2.2 97 97 N 7 11 30.12 1020 3 4.82802 0 0
9:15 pm 21:15 Cloudy with Mist and Fog 37 2.5 36 2.1 97 97 N 7 11 30.14 1021 3 4.82802 0 0
9:35 pm 21:35 Cloudy with Mist and Fog 36 2.4 36 2 97 97 N 6 9 30.13 1020 3 4.82802 0 0
9:55 pm 21:55 Cloudy with Mist and Fog 36 2.3 35 1.9 97 97 N 9 15 30.12 1020 3.5 5.63269 0 0
10:15 pm 22:15 Cloudy with Mist and Fog 36 2.2 35 1.8 97 97 N 6 9 30.14 1021 3 4.82802 0 0
10:35 pm 22:35 Cloudy with Mist and Fog 36 2.1 35 1.6 97 97 N 5 7 30.15 1021 3.5 5.63269 0 0
10:55 pm 22:55 Cloudy with Mist and Fog 36 2 35 1.4 96 96 N 5 7 30.14 1021 3.5 5.63269 0 0
11:15 pm 23:15 Cloudy with Mist and Fog 35 1.9 34 1.3 96 96 N 7 11 30.13 1020 4 6.43736 0 0
11:35 pm 23:35 Cloudy with Mist and Fog 35 1.9 34 1.3 96 96 N 8 13 30.12 1020 4 6.43736 0 0
11:55 pm 23:55 Cloudy with Mist and Fog 35 1.8 34 1.1 95 95 N 10 17 30.11 1020 4 6.43736 0 0

Powered by AerisWeather